Location: Strada George Coșbuc
(47.6577°N, 23.5639°E)
Time: 01:24:53
(UTC+03:00)

ISS - Pass Details

Date: 12 September 2017
Orbit: 401 x 407 km, 51.6° (Epoch: 23 September)

Event Time Altitude Azimuth Distance (km) Brightness Sun altitude
Exits shadow 05:44:17 15° 295° (WNW) 1,213 -1.8 -13.0°
Maximum altitude 05:46:43 39° 1° (N) 629 -2.7 -12.6°
Drops below altitude 10° 05:49:52 10° 73° (ENE) 1,473 0.6 -12.1°
Sets 05:52:02 0° 81° (E) 2,333 1.9 -11.8°
